JY1SAT (JO-97)

Last updated on Mon Sep 21 2026 00:03:14 GMT+0000 (Coordinated Universal Time)

1 43803U 18099AX 26262.41966991 .00012286 00000+0 34786-3 0 9997 2 43803 97.4022 325.7200 0003853 296.9693 63.1158 15.36423222428082
UTC large
Height (km)
Speed (km/s)
/
Latitude / Longitude
Inclination (degrees)
Orbital Period (minutes)
Azimuth
Elevation
Range (km)
Doppler Factor

Next 0 passes for location: London (51.5072 / 0.1276)

No passes found over London.
JY1SAT (JO-97)